This is the latest recevied weather packets stored in our database for station/object KR4KUV. If no packets are shown the sender has not sent any weather packets the latest 10 day(s).
| Time | Temp. | Humidity | Pressure | Rain* | Wind** | Luminosity | Snow |
|---|---|---|---|---|---|---|---|
| 1787586721 | 28.89° C | 54% | 1018.4 hPa | 0 mm | - | 631 W/m² | - |
| 1787586417 | 28.89° C | 57% | 1018.2 hPa | 0 mm | - | 621 W/m² | - |
| 1787586113 | 28.33° C | 55% | 1018.4 hPa | 0 mm | - | 614 W/m² | - |
| 1787585809 | 27.78° C | 58% | 1018.4 hPa | 0 mm | - | 602 W/m² | - |
| 1787585503 | 27.78° C | 59% | 1018.2 hPa | 0 mm | - | 592 W/m² | - |
| 1787585198 | 27.78° C | 57% | 1018.4 hPa | 0 mm | - | 583 W/m² | - |
| 1787584893 | 27.78° C | 63% | 1018.4 hPa | 0 mm | - | 575 W/m² | - |
| 1787584592 | 27.78° C | 59% | 1018.4 hPa | 0 mm | - | 564 W/m² | - |
| 1787584286 | 27.22° C | 62% | 1018.4 hPa | 0 mm | - | 324 W/m² | - |
| 1787583985 | 26.67° C | 65% | 1018.2 hPa | 0 mm | - | 513 W/m² | - |
| 1787583681 | 26.67° C | 64% | 1018.2 hPa | 0 mm | - | 139 W/m² | - |
| 1787583380 | 26.67° C | 69% | 1018.4 hPa | 0 mm | - | 56 W/m² | - |
| 1787583074 | 26.67° C | 66% | 1018.4 hPa | 0 mm | - | 54 W/m² | - |
| 1787582769 | 26.67° C | 68% | 1018.5 hPa | 0 mm | - | 62 W/m² | - |
| 1787582465 | 26.11° C | 68% | 1018.1 hPa | 0 mm | - | 115 W/m² | - |
| 1787582160 | 26.11° C | 67% | 1018.4 hPa | 0 mm | - | 146 W/m² | - |
| 1787581859 | 26.11° C | 68% | 1018.3 hPa | 0 mm | - | 114 W/m² | - |
| 1787581555 | 25.56° C | 72% | 1018.2 hPa | 0 mm | - | 67 W/m² | - |
| 1787581255 | 25.56° C | 72% | 1018.2 hPa | 0 mm | - | 52 W/m² | - |
| 1787580954 | 25.56° C | 74% | 1018.1 hPa | 0 mm | - | 54 W/m² | - |
| 1787580651 | 25.56° C | 71% | 1018.2 hPa | 0 mm | - | 64 W/m² | - |
| 1787580346 | 25° C | 72% | 1018.1 hPa | 0 mm | - | 97 W/m² | - |
| 1787580041 | 25° C | 72% | 1018.1 hPa | 0 mm | - | 207 W/m² | - |
| 1787579740 | 25° C | 73% | 1018.3 hPa | 0 mm | - | 107 W/m² | - |
| 1787579435 | 25° C | 74% | 1018.3 hPa | 0 mm | - | 49 W/m² | - |
* Rain latest hour (hover to see other rain measurements)
** Current wind speed in m/s (hover to see current wind gust speed)